Regional Weather Roundup
Issued by NWS Northern Indiana

Home | Current Version | Previous Version | Graphics & Text | Print | Product List | Glossary On
Versions: 1 2 3 4 5 6 7 8 9 10 11 12 13 14 15 16 17 18 19 20 21 22 23 24 25 26 27 28 29 30 31 32 33 34 35 36 37 38 39 40 41 42 43 44 45 46 47 48 49 50
000
ASUS43 KIWX 212201
RWRIWX

KIWX WEATHER ROUNDUP
NATIONAL WEATHER SERVICE NORTHERN INDIANA
600 PM EDT SAT OCT 21 2017

NOTE: "FAIR" INDICATES FEW OR NO CLOUDS BELOW 12,000 FEET WITH NO
SIGNIFICANT WEATHER AND/OR OBSTRUCTIONS TO VISIBILITY.

* THESE STATIONS ARE NOT UNDER NWS QUALITY CONTROL. THEY ALSO MAY NOT
  REPORT WEATHER SUCH AS PRECIPITATION OR FOG.

INZ001>027-212300-
NORTHERN INDIANA

CITY           SKY/WX    TMP DP  RH WIND       PRES   REMARKS
GARY*          MOCLDY    77  54  44 S12G23    30.02S
SOUTH BEND     PTCLDY    71  54  54 S14       30.08F
ELKHART*       CLEAR     72  54  53 S9        30.09F
GOSHEN         PTCLDY    72  52  49 S13       30.11S
MONTICELLO*    CLOUDY    73  55  53 S6        30.07F
FORT WAYNE     MOCLDY    73  41  31 S13       30.14F
PERU/GRISSOM   PTCLDY    71  54  54 S10       30.10F

$$
INZ028>050-212300-
CENTRAL INDIANA

CITY           SKY/WX    TMP DP  RH WIND       PRES   REMARKS
LAFAYETTE      MOCLDY    73  58  59 S6        30.08S
KOKOMO*        CLEAR     74  54  49 S13       30.13F
MUNCIE*        CLEAR     73  49  42 S7        30.15S
INDIANAPOLIS   MOCLDY    73  52  47 SE10      30.13

$$
MIZ043>046-050>051-056>058-064>065-071>073-077>080-212300-
SOUTHWEST LOWER MICHIGAN

CITY           SKY/WX    TMP DP  RH WIND       PRES   REMARKS
BATTLE CREEK   CLEAR     73  43  33 S12       30.11F
BENTON HARBOR  PTCLDY    73  54  51 S9        30.04F
COLDWATER*     CLOUDY    71  38  30 S8        30.13S
HILLSDALE*     CLEAR     70  45  40 S6        30.15S
HOLLAND        CLEAR     71  53  52 S16       30.05F
GRAND RAPIDS   CLOUDY    72  46  39 S15       30.07F
KALAMAZOO      CLEAR     70  43  37 S10       30.11R
STURGIS*       CLOUDY    70  51  49 S13G20    30.11S
THREE RIVERS*  FAIR      72  49  44 S9        30.11S

$$
OHZ001>008-015>018-024>025-212300-
NORTHWEST OHIO

CITY           SKY/WX    TMP DP  RH WIND       PRES   REMARKS
DEFIANCE       CLEAR     74  48  39 S7        30.15S
FINDLAY        PTCLDY    73  40  30 S13       30.16R
TOLEDO EXPRESS MOCLDY    74  55  51 S5        30.15S
TOLEDO METCALF PTCLDY    73  54  51 SE7       30.17R
LIMA           CLEAR     71  47  42 S9        30.18S

$$
AND FOR LAKE MICHIGAN COASTAL AND OPEN LAKE BUOY OBSERVATIONS

STATION/POSITION TEMP    WIND        PRES    VSBY  WAVE
                 AIR SEA DIR/SP/G                  HT/PER
                 (F)     (DEG/KT/KT) (MB)    (MI)  (FT/S)
CALUMET HARBOR    75     170/ 12/ 21 1015.4S
MICHIGAN CITY     74     160/ 13/ 17   N/A
BURNS HARBOR      76     170/  9/ 17 1017.3R
SAINT JOSEPH      76     190/  5/ 13 1018.3
SOUTH LAKE BUOY   65 61  150/ 19/ 21 1015.8          4/ 5
4 MI NW BRIDGMAN  68 59  170/ 10/ 14 1017.2F         2/ 3
MICHIGAN CITY     68 58  180/ 10/ 14   N/A           1/ 2

$$
&&



USA.gov is the U.S. government's official web portal to all federal, state and local government web resources and services.